Deer Lodge (38S)
Deer Lodge, MT
Field Elevation: 4692
Lat: 49°23.27N  Long: 112°45.89W
CTAF/Unicom Freq: 120.0250
   
     For Weather-by-Phone, call 406-846-1177
Weather Advisories
8/21/2014 08:11 Z
Altimeter 30.07" Hg
Wind 240° @ 4 KT
Gusts --
Visibility 10 SM
Temperature 11° C (52° F)
Dewpoint 9° C (48° F)
Relative Humidity 89%
Density Altitude --
Condensation Altitude 5,500 feet
  Wind and Runways
Indicated Runway = 31
History
 
 
More Info
All DigiWx sites map
Weather Radar
NOAA Forecast
 
Airport IQ 5010
(S59) Libby
(6S5) Ravalli County
 
about DigiWx
 
FAA Disclaimer: The data displayed is for advisory purposes only and is not to be used for flight planning or operations. For official data, please call 406-846-1177 to hear the current automated AWOS voice message.
  METAR 38S 210811Z AUTO 24004KT 10SM 11/09 A3007